Regional Weather Roundup
Issued by NWS

Current Version | Previous Version | Text Only | Print | Product List | Glossary On
Versions: 1 2 3 4 5 6 7 8 9 10 11 12 13 14 15 16 17 18 19 20 21 22 23 24 25 26 27 28 29 30 31 32 33 34 35 36 37 38 39 40 41 42 43 44 45 46 47 48 49 50
583
ASCA44 KEWX 030120
RWRMX

LATIN AMERICA AND CARIBBEAN REGIONAL WEATHER ROUNDUP
NATIONAL WEATHER SERVICE AUSTIN/SAN ANTONIO TX
800 PM CDT MON MAY 02 2016

NOTE: "FAIR" INDICATED FEW OR NO CLOUDS BELOW 12,000 FEET WITH NO
SIGNIFICANT WEATHER AND/OR OBSTRUCTIONS TO VISIBILITY.

BAJA CALIFORNIA

CITY           SKY/WX    TMP DP  RH WIND       PRES   REMARKS
LORETO         SUNNY     79  64  61 NE9       29.85S
LA PAZ         SUNNY     79  54  41 NW14      29.85S
MEXICALI       SUNNY     88  36  15 CALM      29.86F
S.J. DEL CABO  CLEAR     77  61  57 SE8       29.86
TIJUANA        SUNNY     66  52  59 W10       29.99

NORTHWESTERN MEXICO

CITY           SKY/WX    TMP DP  RH WIND       PRES   REMARKS
CULIACAN       CLEAR     88  64  45 W12       29.80S
DURANGO        CLEAR     84  12   6 W9        30.06R
GUAYMAS        SUNNY     81  52  36 W10       29.79S
HERMOSILLO     SUNNY     86  45  23 S13       29.86S
CD. JUAREZ     CLEAR     70  37  30 E12       30.02F
LOS MOCHIS     CLEAR     79  48  34 NW14      29.83S
OBREGON        SUNNY     84  36  17 W12       29.79S

NORTHEASTERN MEXICO

CITY           SKY/WX    TMP DP  RH WIND       PRES   REMARKS
CHIHUAHUA      CLEAR     86  34  15 E13       30.04S
MATAMOROS      CLOUDY    73  59  60 N12       29.98R
MONCLOVA         N/A    N/A N/A N/A MISG        N/A
MONTERREY      CLOUDY    66  50  55 NW8       30.07R
NUEVO LAREDO   CLOUDY    66  52  59 N10       30.08R
PIEDRAS NEGRAS   N/A    N/A N/A N/A MISG        N/A
REYNOSA        CLOUDY    70  52  52 NW12      30.00R
SALTILLO       FOG       52  50  93 N6        30.19R VSB 1/2
TORREON        CLEAR     88  37  16 N10       29.82
CD. VICTORIA   CLOUDY    68  57  68 NW8       30.03R

WESTERN MEXICO

CITY           SKY/WX    TMP DP  RH WIND       PRES   REMARKS
AGUASCALIENTES PTCLDY    86  14   7 SW17      30.07R
COLIMA         PTCLDY    77  63  61 W9        29.91R
DEL BAJIO      PTCLDY    88  25  10 W5        30.10R
GUADALAJARA    CLEAR     90  27  10 W8        29.99R
MANZANILLO     PTCLDY    75  70  83 W12       29.74
MAZATLAN       CLEAR     79  64  61 NW13      29.80R
P. VALLARTA    CLEAR     77  70  78 SW9       29.80S
URUAPAN          N/A    N/A N/A N/A MISG        N/A
ZACATECAS      PTCLDY    81  23  12 W17       30.13

CENTRAL MEXICO

CITY           SKY/WX    TMP DP  RH WIND       PRES   REMARKS
CUERNAVACA     MOCLDY    93  27   9 CALM      29.90R
MEXICO CITY    MOCLDY    82  30  15 S7        30.18R
MORELIA        MOCLDY    81  30  16 S7        30.07R
POZA RICA      MOCLDY    84  75  74 NE6       29.90R HX  92
PUEBLA         MOCLDY    73  34  23 SE12      30.21R
QUERETARO      PTCLDY    79  55  44 NE20      30.14R
S. LUIS POTOSI CLEAR     75  52  43 E23       30.08
TAMPICO        MOCLDY    81  66  61 N29G40    29.89R
TOLUCA         MOCLDY    75  36  23 SE10      30.30

SOUTHERN MEXICO

CITY           SKY/WX    TMP DP  RH WIND       PRES   REMARKS
ACAPULCO       CLEAR     79  72  78 W6        29.81R
B. DE HUATULCO   N/A    N/A N/A N/A MISG        N/A
OAXACA         CLOUDY    82  48  30 S8        30.10R
P. ESCONDIDO     N/A    N/A N/A N/A MISG        N/A
VERACRUZ       PTCLDY    82  75  78 NE17      29.82R HAZE
ZIHUATANEJO    PTCLDY    81  68  65 CALM      29.81

YUCATAN PENINSULA

CITY           SKY/WX    TMP DP  RH WIND       PRES   REMARKS
CAMPECHE       CLEAR     88  79  74 NW12G23   29.74R HX 102
CANCUN         PTCLDY    82  77  83 E9        29.90R HX  91
CHETUMAL       CLEAR     84  77  79 E7        29.84R HX  94
CD. DEL CARMEN PTCLDY    88  79  74 NE8       29.75R HX 102
COZUMEL        PTCLDY    79  75  89 E10       29.89R
MERIDA         PTCLDY    91  72  52 NE8       29.78R HX  98
MINATITLAN     CLEAR     82  75  78 CALM      29.78R
TAPACHULA      CLOUDY    84  75  74 W12       29.78R HX  92
TUX. GUTIERREZ PTCLDY    90  61  37 NW22      29.79R
VILLAHERMOSA   PTCLDY    86  79  79 N6        29.79R SMOKE   HX  99

CENTRAL AMERICA

CITY           SKY/WX    TMP DP  RH WIND       PRES   REMARKS
BELIZE CITY    PTCLDY    84  79  84 E7        29.86R HX  96
MANAGUA        PTCLDY    90  75  62 W9        29.74  HX 100

CARIBBEAN

CITY           SKY/WX    TMP DP  RH WIND       PRES   REMARKS
ARUBA          PTCLDY    82  75  78 E21       29.92R
KINGSTON       PTCLDY    84  75  74 SE16      29.92R HX  92
NASSAU         PTCLDY    79  75  89 E9        30.04R
SAN JUAN       LGT RAIN  73  73 100 E6        30.07
SANTO DOMINGO  MOCLDY    79  73  83 VRB3      30.00R THUNDER
ST. CROIX      MOCLDY    75  72  88 NE8       30.06R
ST. KITTS      PTCLDY    79  75  89 NE13      30.06
ST. MAARTEN    PTCLDY    79  73  83 E10       30.06S THUNDER
ST. THOMAS     LGT RAIN  77  72  83 E10       30.06R

$$





USA.gov is the U.S. government's official web portal to all federal, state and local government web resources and services.